Location: Unspecified
(25.6930°N, 0.0000°E)
Time: 13:52:18
(UTC+00:00)

Transit 2A Rocket - Visible Passes

Search period start: 04 April 2026 00:00
Search period end: 14 April 2026 00:00
Orbit: 584 x 899 km, 66.7° (Epoch: 28 March)

Date Brightness Start Highest point End Pass type
(mag) Time Alt. Az. Time Alt. Az. Time Alt. Az.
4 Apr 7.2 03:16:18 19° SE 03:18:40 24° ESE 03:23:19 10° NE visible
4 Apr 5.9 04:56:03 14° SW 05:00:50 38° WNW 05:06:15 10° N visible
5 Apr 7.9 02:32:49 11° ESE 02:33:16 11° ESE 02:35:01 10° E visible
5 Apr 5.2 04:12:34 37° SW 04:15:04 74° WNW 04:20:58 10° NNE visible
6 Apr 5.7 03:28:55 56° SE 03:29:27 58° ESE 03:35:13 10° NNE visible
6 Apr 6.8 05:08:39 11° W 05:12:05 17° WNW 05:15:46 10° NNW visible
7 Apr 7.0 02:45:07 27° E 02:45:07 27° E 02:48:55 10° NE visible
7 Apr 6.1 04:24:51 29° W 04:26:09 32° WNW 04:31:19 10° N visible
8 Apr 8.1 02:01:13 11° ENE 02:01:13 11° ENE 02:01:30 10° ENE visible
8 Apr 5.4 03:40:56 58° NW 03:40:56 58° NW 03:46:10 10° NNE visible
9 Apr 6.4 02:56:55 39° NE 02:56:55 39° NE 03:00:33 10° NNE visible
9 Apr 7.0 04:36:38 14° WNW 04:37:27 14° WNW 04:40:24 10° NNW visible
10 Apr 7.6 02:12:49 18° NE 02:12:49 18° NE 02:14:26 10° NE visible
10 Apr 6.6 03:52:31 25° NW 03:52:31 25° NW 03:56:19 10° N visible
11 Apr 6.7 03:08:20 29° N 03:08:20 29° N 03:11:19 10° N visible
12 Apr 7.4 02:24:04 21° NNE 02:24:04 21° NNE 02:25:49 10° NNE visible
12 Apr 7.4 04:03:46 11° NW 04:03:46 11° NW 04:04:35 10° NW visible
13 Apr 8.1 01:39:45 10° NE 01:39:45 10° NE 01:39:52 10° NE visible
13 Apr 7.2 03:19:26 17° NNW 03:19:26 17° NNW 03:21:14 10° N visible
